Regional Weather Roundup
Issued by NWS

Home | Current Version | Previous Version | Text Only | Print | Product List | Glossary Off
Versions: 1 2 3 4 5 6 7 8 9 10 11 12 13 14 15 16 17 18 19 20 21 22 23 24 25 26 27 28 29 30 31 32 33 34 35 36 37 38 39 40 41 42 43 44 45 46 47 48 49 50

000
ASUS43 KLMK 290602
RWRKY
KENTUCKY REGIONAL WEATHER ROUNDUP
NATIONAL WEATHER SERVICE LOUISVILLE KY
200 AM EDT SUN MAY 29 2016

NOTE "FAIR" INDICATES FEW OR NO CLOUDS BELOW 12,000 FEET
WITH NO SIGNIFICANT WEATHER AND/OR OBSTRUCTIONS TO VISIBILITY.

KYZ001>023-026-027-061>063-070>075-290700-
WESTERN AND SOUTH CENTRAL KENTUCKY

CITY           SKY/WX    TMP DP  RH WIND       PRES   REMARKS
PADUCAH        CLEAR     71  63  75 S3        30.04S
HENDERSON      CLEAR     70  63  78 S3        30.04S
OWENSBORO      CLEAR     71  68  90 SE8       30.06F
HOPKINSVILLE   NOT AVBL
BOWLING GREEN  MOCLDY    68  66  93 CALM      30.10S
GLASGOW        NOT AVBL
$$

KYZ024-025-028>034-038-045-046-053-290700-
NORTH CENTRAL KENTUCKY

CITY           SKY/WX    TMP DP  RH WIND       PRES   REMARKS
LOUISVILLE/SDF MOCLDY    71  64  78 SE3       30.08S
LOUISVILLE/LOU CLOUDY    72  63  73 CALM      30.09S
FORT KNOX      CLOUDY    67  65  91 CALM      30.08S
$$

KYZ035>037-039>044-047>052-055>060-089>105-290700-
NORTHEAST KENTUCKY

CITY           SKY/WX    TMP DP  RH WIND       PRES   REMARKS
LEXINGTON      PTCLDY    67  61  81 S6        30.12S
COVINGTON      MOCLDY    64  63  96 S6        30.10R
FRANKFORT      CLOUDY    67  62  84 CALM      30.10S
$$

KYZ054-064>069-076>088-106>120-290700-
SOUTHEAST KENTUCKY

CITY           SKY/WX    TMP DP  RH WIND       PRES   REMARKS
JACKSON        CLOUDY    70  65  84 W3        30.13S
LONDON         PTCLDY    68  63  84 CALM      30.14S
SOMERSET       NOT AVBL
MIDDLESBORO    NOT AVBL
MONTICELLO     PTCLDY    65  64  97 NW9       30.15S
$$




USA.gov is the U.S. government's official web portal to all federal, state and local government web resources and services.